Location: Newark
(25.0000°N, 73.5000°E)
Time: 18:55:31
(UTC+00:00)

Courier 1B - Visible Passes

Search period start: 28 February 2021 00:00
Search period end: 10 March 2021 00:00
Orbit: 962 x 1209 km, 28.3° (Epoch: 28 February)

Date Brightness Start Highest point End Pass type
(mag) Time Alt. Az. Time Alt. Az. Time Alt. Az.
28 Feb 10.2 00:31:25 10° SSE 00:32:02 10° SSE 00:32:40 10° SE visible
02 Mar 9.6 00:33:37 10° SSW 00:38:19 21° SSE 00:42:58 10° ESE visible
02 Mar 9.8 23:41:11 10° S 23:44:40 15° SSE 23:48:06 10° ESE visible
04 Mar 8.8 00:38:40 10° SW 00:44:37 36° SSE 00:50:28 10° E visible
04 Mar 9.1 23:46:28 14° SSW 23:50:58 27° SSE 23:56:20 10° E visible
05 Mar 9.3 22:56:28 20° SSE 22:57:17 20° SSE 23:01:57 10° ESE visible
06 Mar 8.0 00:44:28 10° SW 00:51:00 59° SSE 00:57:20 10° E visible
06 Mar 10.1 22:06:24 11° ESE 22:06:24 11° ESE 22:07:05 10° ESE visible
06 Mar 8.3 23:53:19 22° SW 23:57:18 46° SSE 00:03:29 10° E visible
07 Mar 8.5 23:03:10 35° SSE 23:03:36 35° SSE 23:09:32 10° E visible
08 Mar 7.6 00:50:44 10° WSW 00:57:28 85° SSE 01:03:58 10° ENE visible
08 Mar 9.6 22:12:57 20° ESE 22:12:57 20° ESE 22:15:24 10° E visible
08 Mar 7.7 23:59:51 27° WSW 00:03:43 71° SSE 00:10:13 10° ENE visible
09 Mar 7.8 23:09:34 56° S 23:09:57 57° SSE 23:16:27 10° E visible
